Waskish, MN

9:48 AM CDT on August 18, 2017 (GMT -0500)
Waskish Municipal

Weather History for KVWU - December, 2012

Change the Weather History Date:

Wednesday, December 19, 2012

  Actual Average (KBDE) Record (KBDE)
Temperature  
Mean Temperature 24 °F -  
Max Temperature 28 °F 17 °F 39 °F (1943)
Min Temperature 19 °F -1 °F -45 °F (1955)
Degree Days  
Heating Degree Days 42    
Moisture  
Dew Point 21 °F    
Average Humidity 93    
Maximum Humidity 100    
Minimum Humidity 80    
Precipitation  
Precipitation 0.00 in - - ()
Sea Level Pressure  
Sea Level Pressure 29.83 in    
Wind  
Wind Speed 4 mph (SW)    
Max Wind Speed 12 mph    
Max Gust Speed 18 mph    
Visibility 7 miles    
Events Snow    
Averages and records for this station are not official NWS values.
T = Trace of Precipitation, MM = Missing Value Source: NWS Daily Summary

Daily Weather History Graph

Daily Weather History Graph

Search for Another Location

Airport or City:

Trip Planner

Search our weather history database for the weather conditions in past years. The results will help you decide how hot, cold, wet, or windy it might be!

Date:

Astronomy

Dec. 19, 2012 Rise Set
Actual Time 8:04 AM CST 4:26 PM CST
Civil Twilight 7:28 AM CST 5:02 PM CST
Nautical Twilight 6:48 AM CST 5:42 PM CST
Astronomical Twilight 6:10 AM CST 6:20 PM CST
Moon 11:43 AM CST (12/19) No Moon Set
Length of Visible Light 9h 34m
Length of Day
8h 21m
Waxing Crescent, 45% of the Moon is Illuminated
Dec 19
Waxing Crescent
Dec 19
First Quarter
Dec 28
Full
Jan 4
Last Quarter
Jan 11
New

Hourly Weather History & Observations

Time (CST) Temp. Windchill Dew Point Humidity Pressure Visibility Wind Dir Wind Speed Gust Speed Precip Events Conditions
12:07 AM 23.0 °F - 21.2 °F 93% 29.72 in 4.0 mi Calm Calm - N/A Snow Light Snow
12:27 AM 23.0 °F - 21.2 °F 93% 29.72 in 3.0 mi Calm Calm - N/A Snow Light Snow
12:47 AM 23.0 °F - 21.2 °F 93% 29.72 in 3.0 mi Calm Calm - N/A Snow Light Snow
1:07 AM 23.0 °F - 21.2 °F 93% 29.72 in 4.0 mi Calm Calm - N/A Snow Light Snow
1:27 AM 23.0 °F - 21.2 °F 93% 29.72 in 5.0 mi Calm Calm - N/A Snow Light Snow
1:47 AM 21.2 °F - 21.2 °F 100% 29.73 in 3.0 mi Calm Calm - N/A Snow Light Snow
2:07 AM 21.2 °F - 21.2 °F 100% 29.73 in 2.0 mi Calm Calm - N/A Snow Light Snow
2:27 AM 23.0 °F - 21.2 °F 93% 29.74 in 3.0 mi Calm Calm - N/A Snow Light Snow
2:47 AM 23.0 °F - 21.2 °F 93% 29.74 in 3.0 mi Calm Calm - N/A Snow Light Snow
3:07 AM 23.0 °F - 21.2 °F 93% 29.74 in 2.5 mi Calm Calm - N/A Snow Light Snow
3:27 AM 23.0 °F - 21.2 °F 93% 29.74 in 5.0 mi Calm Calm - N/A Snow Light Snow
3:47 AM 23.0 °F - 21.2 °F 93% 29.74 in 5.0 mi Calm Calm - N/A Snow Light Snow
4:07 AM 23.0 °F - 21.2 °F 93% 29.74 in 5.0 mi Calm Calm - N/A Snow Light Snow
4:27 AM 23.0 °F - 21.2 °F 93% 29.74 in 5.0 mi Calm Calm - N/A Snow Light Snow
4:47 AM 21.2 °F - 21.2 °F 100% 29.74 in 7.0 mi Calm Calm - N/A Snow Light Snow
5:07 AM 21.2 °F - 21.2 °F 100% 29.74 in 7.0 mi Calm Calm - N/A   Overcast
5:27 AM 21.2 °F - 21.2 °F 100% 29.74 in 7.0 mi Calm Calm - N/A   Overcast
6:07 AM 19.4 °F - 19.4 °F 100% 29.75 in 7.0 mi Calm Calm - N/A   Overcast
6:27 AM 21.2 °F - 19.4 °F 93% 29.76 in 7.0 mi Calm Calm - N/A   Overcast
6:47 AM 21.2 °F 16.4 °F 21.2 °F 100% 29.76 in 7.0 mi SE 3.5 mph - N/A   Overcast
7:07 AM 23.0 °F 17.0 °F 21.2 °F 93% 29.76 in 7.0 mi SE 4.6 mph - N/A   Overcast
7:27 AM 23.0 °F 17.0 °F 21.2 °F 93% 29.76 in 7.0 mi SE 4.6 mph - N/A   Overcast
7:47 AM 24.8 °F 20.5 °F 23.0 °F 93% 29.77 in 5.0 mi SE 3.5 mph - N/A   Overcast
8:07 AM 24.8 °F 20.5 °F 23.0 °F 93% 29.76 in 4.0 mi SE 3.5 mph - N/A   Overcast
8:32 AM 24.8 °F - 23.0 °F 93% 29.77 in 4.0 mi Calm Calm - N/A   Overcast
8:47 AM 24.8 °F 20.5 °F 23.0 °F 93% 29.78 in 4.0 mi SE 3.5 mph - N/A   Overcast
9:07 AM 24.8 °F - 24.8 °F 100% 29.79 in 4.0 mi Calm Calm - N/A   Overcast
9:27 AM 26.6 °F 22.6 °F 24.8 °F 93% 29.78 in 4.0 mi SE 3.5 mph - N/A   Overcast
9:47 AM 28.4 °F 24.6 °F 26.6 °F 93% 29.79 in 5.0 mi South 3.5 mph - N/A   Overcast
10:07 AM 28.4 °F 23.3 °F 26.6 °F 93% 29.79 in 5.0 mi SSW 4.6 mph - N/A   Overcast
10:27 AM 28.4 °F 19.7 °F 26.6 °F 93% 29.79 in 7.0 mi SSW 9.2 mph - N/A   Overcast
10:47 AM 28.4 °F 19.7 °F 26.6 °F 93% 29.80 in 10.0 mi SW 9.2 mph - N/A   Overcast
11:07 AM 26.6 °F 16.8 °F 24.8 °F 93% 29.80 in 10.0 mi SSW 10.4 mph - N/A   Scattered Clouds
11:27 AM 26.6 °F 16.8 °F 24.8 °F 93% 29.80 in 10.0 mi SSW 10.4 mph - N/A   Clear
11:47 AM 26.6 °F 16.2 °F 23.0 °F 86% 29.80 in 10.0 mi SSW 11.5 mph - N/A   Clear
12:07 PM 26.6 °F 16.8 °F 21.2 °F 80% 29.81 in 10.0 mi SSW 10.4 mph - N/A   Scattered Clouds
12:27 PM 28.4 °F 19.1 °F 24.8 °F 86% 29.81 in 10.0 mi SSW 10.4 mph - N/A   Mostly Cloudy
12:47 PM 26.6 °F 16.2 °F 21.2 °F 80% 29.82 in 10.0 mi SW 11.5 mph - N/A   Mostly Cloudy
1:07 PM 26.6 °F 17.5 °F 21.2 °F 80% 29.83 in 10.0 mi SSW 9.2 mph - N/A   Scattered Clouds
1:27 PM 24.8 °F 15.3 °F 19.4 °F 80% 29.83 in 10.0 mi SSW 9.2 mph - N/A   Scattered Clouds
1:47 PM 24.8 °F 14.6 °F 19.4 °F 80% 29.83 in 10.0 mi SW 10.4 mph 16.1 mph N/A   Overcast
2:07 PM 24.8 °F 14.0 °F 19.4 °F 80% 29.84 in 10.0 mi SW 11.5 mph 18.4 mph N/A   Overcast
2:27 PM 23.0 °F 11.7 °F 19.4 °F 86% 29.85 in 10.0 mi SW 11.5 mph 17.3 mph N/A   Overcast
2:47 PM 23.0 °F 13.1 °F 19.4 °F 86% 29.86 in 10.0 mi SSW 9.2 mph - N/A   Overcast
3:07 PM 21.2 °F 14.9 °F 19.4 °F 93% 29.86 in 10.0 mi SSW 4.6 mph - N/A   Overcast
3:27 PM 21.2 °F 10.9 °F 17.6 °F 86% 29.87 in 10.0 mi SW 9.2 mph - N/A   Overcast
3:47 PM 21.2 °F 12.6 °F 19.4 °F 93% 29.88 in 7.0 mi SW 6.9 mph - N/A Snow Light Snow
4:07 PM 21.2 °F 10.9 °F 19.4 °F 93% 29.89 in 7.0 mi SW 9.2 mph - N/A Snow Light Snow
4:27 PM 21.2 °F 10.9 °F 17.6 °F 86% 29.89 in 7.0 mi SW 9.2 mph - N/A Snow Light Snow
4:47 PM 21.2 °F 10.1 °F 17.6 °F 86% 29.89 in 10.0 mi SW 10.4 mph - N/A   Overcast
5:07 PM 19.4 °F 7.9 °F 17.6 °F 93% 29.91 in 10.0 mi SW 10.4 mph - N/A   Overcast
5:27 PM 19.4 °F 9.5 °F 17.6 °F 93% 29.91 in 10.0 mi WSW 8.1 mph - N/A   Overcast
5:47 PM 19.4 °F 7.9 °F 17.6 °F 93% 29.91 in 10.0 mi SW 10.4 mph - N/A   Overcast
6:07 PM 19.4 °F 8.6 °F 17.6 °F 93% 29.92 in 10.0 mi SW 9.2 mph - N/A   Overcast
6:27 PM 19.4 °F 8.6 °F 17.6 °F 93% 29.92 in 10.0 mi SW 9.2 mph - N/A   Overcast
6:47 PM 19.4 °F 8.6 °F 17.6 °F 93% 29.93 in 10.0 mi SW 9.2 mph - N/A   Overcast
7:07 PM 19.4 °F 7.9 °F 17.6 °F 93% 29.94 in 10.0 mi SW 10.4 mph - N/A   Overcast
7:27 PM 19.4 °F 8.6 °F 17.6 °F 93% 29.94 in 10.0 mi SW 9.2 mph - N/A   Overcast
7:47 PM 19.4 °F 7.2 °F 17.6 °F 93% 29.95 in 10.0 mi SW 11.5 mph - N/A   Overcast
8:07 PM 19.4 °F 7.9 °F 17.6 °F 93% 29.96 in 10.0 mi SW 10.4 mph - N/A   Overcast
8:27 PM 19.4 °F 8.6 °F 17.6 °F 93% 29.96 in 7.0 mi WSW 9.2 mph - N/A   Overcast
8:46 PM 19.4 °F 11.5 °F 17.6 °F 93% 29.96 in 7.0 mi WSW 5.8 mph - N/A   Overcast
9:07 PM 21.2 °F 10.9 °F 19.4 °F 93% 29.96 in 7.0 mi West 9.2 mph - N/A   Overcast
9:27 PM 21.2 °F 10.9 °F 19.4 °F 93% 29.97 in 7.0 mi West 9.2 mph - N/A   Overcast
9:47 PM 19.4 °F 11.5 °F 19.4 °F 100% 29.97 in 7.0 mi West 5.8 mph - N/A   Overcast
10:07 PM 19.4 °F 10.4 °F 19.4 °F 100% 29.98 in 7.0 mi WSW 6.9 mph - N/A   Overcast
10:27 PM 19.4 °F 11.5 °F 19.4 °F 100% 29.98 in 7.0 mi West 5.8 mph - N/A   Overcast
10:47 PM 19.4 °F 10.4 °F 19.4 °F 100% 29.99 in 5.0 mi West 6.9 mph - N/A   Overcast
11:07 PM 19.4 °F 9.5 °F 19.4 °F 100% 29.98 in 7.0 mi West 8.1 mph - N/A   Overcast
11:27 PM 19.4 °F 10.4 °F 19.4 °F 100% 29.98 in 7.0 mi West 6.9 mph - N/A   Overcast
11:47 PM 19.4 °F 12.8 °F 19.4 °F 100% 29.98 in 10.0 mi WNW 4.6 mph - N/A   Overcast